| time (UTC) | temp F | wind direction | speed knots | gust knots | rain 1hr in | rain 24hr in | rain mn in | humidity % | barometer mb |
| 20260510142003 | 59 | 58 | 4.3 | 6.1 | 0.00 | 0.86 | 0.00 | 82 | 1012.7 |
| 20260510140004 | 58 | 51 | 1.7 | 4.3 | 0.00 | 0.89 | 0.00 | 85 | 1012.5 |
| 20260510135004 | 58 | 74 | 0.9 | 4.3 | 0.00 | 0.90 | 0.00 | 85 | 1012.5 |
| 20260510134004 | 58 | 42 | 1.7 | 6.1 | 0.00 | 0.92 | 0.00 | 86 | 1012.4 |
| 20260510133004 | 58 | 69 | 0.9 | 4.3 | 0.00 | 0.92 | 0.00 | 87 | 1012.3 |
| 20260510132004 | 57 | 0 | 0.0 | 4.3 | 0.00 | 0.94 | 0.00 | 87 | 1012.2 |
| 20260510131003 | 57 | 306 | 0.9 | 10.4 | 0.00 | 0.94 | 0.00 | 88 | 1012.3 |
| 20260510130003 | 57 | 90 | 0.9 | 4.3 | 0.00 | 0.96 | 0.00 | 90 | 1012.1 |
| 20260510125003 | 56 | 34 | 0.0 | 2.6 | 0.00 | 0.97 | 0.00 | 90 | 1012.0 |
| 20260510124005 | 55 | 76 | 0.0 | 2.6 | 0.00 | 0.98 | 0.00 | 91 | 1012.0 |
| 20260510105004 | 52 | 67 | 0.0 | 2.6 | 0.00 | 1.02 | 0.00 | 94 | 1011.4 |
| 20260510104005 | 52 | 46 | 0.0 | 2.6 | 0.00 | 1.02 | 0.00 | 94 | 1011.4 |
| 20260509164003 | 50 | 254 | 0.0 | 1.7 | 0.04 | 1.02 | 0.25 | 93 | 1012.2 |
| 20260509163004 | 49 | 254 | 0.0 | 2.6 | 0.05 | 1.02 | 0.25 | 93 | 1012.3 |
| 20260509162003 | 49 | 255 | 0.0 | 1.7 | 0.05 | 1.02 | 0.24 | 94 | 1012.4 |
| 20260509160003 | 47 | 186 | 0.9 | 1.7 | 0.07 | 1.01 | 0.23 | 93 | 1012.8 |
| 20260509155004 | 47 | 182 | 0.9 | 2.6 | 0.07 | 1.00 | 0.22 | 93 | 1013.0 |
| 20260509152004 | 46 | 204 | 0.0 | 1.7 | 0.09 | 0.97 | 0.19 | 92 | 1013.5 |
| 20260509151004 | 45 | 202 | 0.0 | 1.7 | 0.10 | 0.97 | 0.18 | 92 | 1013.5 |
| 20260509150003 | 45 | 202 | 1.7 | 2.6 | 0.09 | 0.95 | 0.16 | 91 | 1013.4 |
| 20260509145004 | 45 | 227 | 0.9 | 1.7 | 0.09 | 0.94 | 0.15 | 91 | 1013.4 |
| 20260509144003 | 45 | 227 | 0.0 | 0.9 | 0.09 | 0.93 | 0.14 | 91 | 1013.5 |
| 20260509143004 | 44 | 227 | 0.0 | 0.9 | 0.08 | 0.91 | 0.12 | 91 | 1013.5 |